World > North America > United States > Texas > Melissa

Hourly Melissa, TX Regional Weather

Feedback E-mail the Weather

Quick WX

Melissa, TX Weather Maps

°F °C°F °C
Melissa Weather Map
UTC Time: 8/10/2022, 01:44
Your Time:

Melissa, TX Regional Weather

Expires:202208100200;;764032
ASUS44 KFWD 100115
RWRTX 
NORTH TEXAS HOURLY WEATHER ROUNDUP
NATIONAL WEATHER SERVICE FORT WORTH TX
800 PM CDT TUE AUG 09 2022

NOTE: "FAIR" INDICATES FEW OR NO CLOUDS BELOW 12,000 FEET WITH NO
SIGNIFICANT WEATHER AND/OR OBSTRUCTIONS TO VISIBILITY.


TXZ091>094-102>105-117-120-121-131>134-100200-
NORTH CENTRAL TEXAS
  
CITY           SKY/WX    TMP DP  RH WIND       PRES   REMARKS
SHRMAN/DENISON FAIR      82  70  65 SE6       30.02R                  
GAINESVILLE    FAIR      84  68  59 SE6       30.02R                  
BOWIE          FAIR      84  69  60 SE7       30.01R                  
BRIDGEPORT     FAIR      83  69  64 CALM      30.01R                  
DECATUR        FAIR      84  67  57 SE8       30.01R                  
DENTON         FAIR      86  70  58 S5        29.99R HX  90           
MCKINNEY       FAIR      83  67  58 SE5       29.99R                  
BONHAM         FAIR      80  71  73 S7        30.00R                  
GREENVILLE     FAIR      75  70  83 CALM      30.00R                  
ROCKWALL       FAIR      83  66  57 SE5       30.00R                  
TERRELL        FAIR      83  66  56 NE6       29.99R                  
WAXAHACHIE     FAIR      78  74  86 CALM      30.01R                  
CLEBURNE       CLEAR     81  73  78 N7        30.00R                  
GRANBURY       FAIR      77  74  90 CALM      30.00S                  
$$


SKY/WX - Weather  TMP - Temperature  DP - Dew Point  RH - Humidity
WIND - Wind Direction/Speed PRES - Barometric Pressure VSB - Visibility
WCI - Wind Chill Index E13G22 Wind - East Wind 13 mph/Gusts of 22 mph

Trending Headlines

Melissa Radar Loop



Melissa Quick Facts


National Two Day Weather Forecast


E-mail the Melissa Weather Forecast

Voice your opinion or tell us about page issues...